AX317 Weather Reports


time (UTC)temp
F
wind
direction
speed
knots
gust
knots
rain 1hr
in
rain 24hr
in
rain mn
in
humidity
%
barometer
mb
20260507062839 46 297 0.0 0.0 0.00 0.00 0.00 96 1005.1
20260507062340 46 320 0.0 0.0 0.00 0.00 0.00 96 1005.1
20260507061840 46 320 0.0 0.0 0.00 0.00 0.00 96 1005.4
20260507061340 46 261 0.0 0.0 0.00 0.00 0.00 96 1005.4
20260507055340 46 261 0.0 0.0 0.00 0.00 0.00 96 1005.4
20260507054839 47 261 0.0 0.0 0.00 0.00 0.00 96 1005.8
20260507054339 47 261 0.0 0.0 0.00 0.00 0.00 96 1005.8
20260507053839 47 261 0.0 0.0 0.00 0.00 0.00 96 1005.8
20260507053339 47 320 0.0 0.0 0.00 0.00 0.00 96 1005.8
20260507052839 47 320 0.0 0.0 0.00 0.00 0.00 96 1006.1
20260507052340 47 270 0.0 0.0 0.00 0.00 0.00 96 1006.1
20260507051839 47 290 0.0 0.0 0.00 0.00 0.00 96 1006.1
20260507050839 47 253 0.0 0.0 0.00 0.00 0.00 96 1005.8
20260507045840 47 281 0.0 0.0 0.00 0.00 0.00 96 1005.8
20260507045339 48 327 0.0 0.0 0.00 0.00 0.00 96 1005.8
20260507042840 48 327 0.0 0.0 0.00 0.00 0.00 96 1005.4
20260507042339 48 327 0.0 0.0 0.00 0.00 0.00 96 1005.4
20260507041839 48 327 0.0 0.0 0.00 0.00 0.00 96 1005.4
20260507035839 48 327 0.0 0.0 0.00 0.00 0.45 96 1005.8
20260507032839 48 327 0.0 0.0 0.00 0.00 0.45 96 1005.8
20260507032339 48 327 0.0 0.0 0.00 0.00 0.45 96 1005.8
20260507031839 48 276 0.0 0.0 0.00 0.00 0.45 96 1005.8
20260507031340 48 345 0.0 0.0 0.00 0.00 0.45 96 1005.8
20260507030841 48 298 0.0 0.0 0.00 0.00 0.45 96 1005.8
20260507030339 48 275 0.0 0.0 0.00 0.00 0.45 96 1005.8
20260507025840 49 275 0.0 0.0 0.00 0.00 0.45 96 1005.8
20260507025340 49 284 0.0 0.0 0.00 0.00 0.45 96 1005.8
20260507024839 49 283 0.0 0.0 0.00 0.00 0.45 96 1005.8
20260507024344 49 292 0.0 0.0 0.00 0.00 0.45 96 1005.8
20260507023839 49 353 0.0 0.0 0.00 0.00 0.45 96 1005.4
20260507022840 49 353 0.0 0.0 0.00 0.00 0.45 96 1005.8
20260507022339 49 353 0.0 0.0 0.12 0.00 0.45 96 1005.8
20260507021840 49 301 0.0 0.0 0.00 0.00 0.44 96 1005.8
20260507021340 50 256 0.0 0.0 0.00 0.00 0.44 96 1005.8
20260507020839 50 320 0.0 0.0 0.00 0.00 0.44 96 1005.8
20260507020341 50 306 0.0 0.0 0.00 0.00 0.44 96 1005.8
20260507015840 51 330 0.0 0.0 0.00 0.00 0.44 96 1005.4
20260507014339 51 307 0.0 0.0 0.00 0.00 0.42 96 1005.4
20260507013427 52 313 0.0 0.0 0.00 0.00 0.42 97 1005.1
20260507011340 52 313 0.0 0.0 0.00 0.00 0.42 97 1004.4
20260507010840 52 319 0.0 0.0 0.00 0.00 0.42 97 1004.4
20260507010339 52 319 0.0 0.0 0.00 0.00 0.42 97 1004.4
20260507005340 54 319 0.0 0.0 0.00 0.00 0.42 98 1004.1
20260507004839 54 9 0.0 0.0 0.00 0.00 0.42 98 1004.1
20260507004339 54 318 0.0 0.0 2.77 0.00 0.42 98 1003.7
20260506214339 60 64 0.0 0.0 0.00 0.00 0.32 98 1001.7
20260506213839 60 64 0.0 0.0 0.00 0.00 0.32 98 1001.7
20260506213340 60 64 0.0 0.0 0.00 0.00 0.32 98 1001.7
20260506212839 60 150 0.0 0.0 0.00 0.00 0.32 98 1001.7
20260506212339 60 339 0.0 0.0 0.24 0.00 0.32 98 1001.7
20260506211840 60 76 0.0 0.0 0.00 0.00 0.30 98 1001.7
20260506211339 60 76 0.0 0.0 0.00 0.00 0.30 98 1001.7
20260506210839 60 155 0.0 0.0 0.00 0.00 0.30 98 1001.7
20260506205340 61 253 0.0 0.0 0.00 0.00 0.30 98 1001.7
20260506204839 61 267 0.0 0.0 0.12 0.00 0.30 97 1001.7
20260506204340 61 264 0.0 0.0 0.00 0.00 0.29 98 1001.7
20260506203840 61 141 0.0 0.0 0.00 0.00 0.29 98 1001.7
20260506203340 61 254 0.0 0.0 0.00 0.00 0.29 98 1001.7
20260506202839 61 164 0.0 0.0 0.12 0.00 0.29 98 1001.7
20260506202340 61 152 0.0 0.0 0.00 0.00 0.28 97 1001.7
20260506201840 61 310 0.0 0.0 0.00 0.00 0.28 97 1001.7
20260506201339 61 310 0.0 0.0 0.00 0.00 0.28 97 1001.7
20260506200840 61 12 0.0 0.0 0.00 0.00 0.28 98 1001.7
20260506200340 61 250 0.0 0.0 0.00 0.00 0.28 98 1001.7
20260506195839 61 258 0.0 0.0 0.00 0.00 0.28 97 1002.0
20260506195339 61 177 0.0 0.0 0.00 0.00 0.28 98 1002.0
20260506194839 61 166 0.0 0.0 0.00 0.00 0.28 98 1002.0
20260506194340 61 171 0.0 0.0 0.00 0.00 0.28 98 1002.0
20260506193840 61 10 0.0 0.0 0.12 0.00 0.28 97 1002.0
20260506193339 61 249 0.0 0.0 0.12 0.00 0.27 98 1002.0
20260506192841 61 317 0.0 0.0 0.00 0.00 0.26 98 1002.0
20260506192340 61 317 0.0 0.0 0.00 0.00 0.26 97 1002.4
20260506191840 61 317 0.0 0.0 0.00 0.00 0.26 97 1002.0
20260506185839 61 249 0.0 0.0 0.00 0.00 0.24 97 1002.4
20260506184339 61 255 0.0 0.0 0.00 0.00 0.21 97 1002.7
20260506183840 61 271 0.0 0.0 0.00 0.00 0.21 97 1002.7
20260506182839 61 189 0.0 0.0 0.12 0.00 0.20 97 1002.7
20260506182342 61 5 0.0 0.0 0.00 0.00 0.19 97 1003.0
20260506181840 61 5 0.0 0.0 0.12 0.00 0.19 96 1003.0
20260506181341 61 110 0.0 0.0 0.00 0.00 0.18 96 1003.0
20260506180839 61 321 0.0 0.0 0.24 0.00 0.18 96 1003.4
20260506180340 61 195 0.0 0.0 0.00 0.00 0.16 96 1003.4
20260506175842 61 140 0.0 0.0 0.12 0.00 0.16 96 1003.4
20260506175343 61 259 0.0 0.0 0.24 0.00 0.15 96 1003.7
20260506174840 61 133 0.0 0.0 0.12 0.00 0.13 96 1003.7
20260506174340 61 220 0.0 0.0 0.00 0.00 0.12 95 1003.7
20260506173841 61 80 0.0 0.0 0.12 0.00 0.12 95 1004.1
20260506173340 61 274 0.0 0.0 0.12 0.00 0.11 95 1003.7
20260506172841 61 308 0.0 0.0 0.24 0.00 0.10 94 1004.1
20260506172339 61 14 0.0 0.0 0.00 0.00 0.08 94 1004.1
20260506171842 61 284 0.0 0.0 0.12 0.00 0.08 94 1004.1
20260506171340 61 225 0.0 0.0 0.12 0.00 0.07 93 1004.4
20260506170839 61 274 0.0 0.0 0.00 0.00 0.06 93 1004.4
20260506170339 61 293 0.0 0.0 0.12 0.00 0.06 93 1004.1
20260506165840 61 197 0.0 0.0 0.12 0.00 0.05 93 1004.1
20260506165339 61 291 0.0 0.0 0.00 0.00 0.04 92 1004.1
20260506164840 62 248 0.0 0.0 0.00 0.00 0.03 91 1004.1
20260506164341 62 248 0.0 0.0 0.12 0.00 0.03 91 1004.1
20260506163840 62 243 0.0 0.0 0.00 0.00 0.02 91 1004.1
20260506163339 62 344 0.0 0.0 0.12 0.00 0.02 91 1004.1
20260506162841 62 139 0.0 0.0 0.00 0.00 0.01 90 1004.1
20260506162339 62 232 0.0 0.0 0.12 0.00 0.01 89 1004.4
20260506161842 62 118 0.0 0.0 0.00 0.00 0.00 88 1004.1
20260506161339 63 189 0.0 0.0 0.00 0.00 0.00 87 1004.4
20260506160839 63 182 0.0 0.0 0.00 0.00 0.00 86 1004.4
20260506160342 63 204 0.0 0.0 0.00 0.00 0.00 86 1004.1
20260506155841 63 322 0.0 0.0 0.00 0.00 0.00 85 1004.4
20260506155339 63 318 0.0 0.0 0.00 0.00 0.00 85 1004.4
20260506154839 63 97 0.0 0.0 0.00 0.00 0.00 84 1004.4
20260506154340 63 235 0.0 0.0 0.00 0.00 0.00 84 1004.7
20260506153842 63 295 0.0 0.0 0.00 0.00 0.00 84 1004.7
20260506153339 63 170 0.0 0.0 0.00 0.00 0.00 84 1004.7
20260506152842 63 59 0.0 0.0 0.00 0.00 0.00 84 1005.1
20260506152343 62 182 0.0 0.0 0.00 0.00 0.00 84 1005.1
20260506151840 62 259 0.0 0.0 0.00 0.00 0.00 85 1005.1
20260506151340 62 230 0.0 0.0 0.00 0.00 0.00 84 1005.1
20260506150842 62 308 0.0 0.0 0.00 0.00 0.00 82 1005.4
20260506150339 63 136 0.0 0.0 0.00 0.00 0.00 81 1005.4
20260506145841 63 293 0.0 0.0 0.00 0.00 0.00 81 1005.4
20260506145342 63 207 0.0 0.0 0.00 0.00 0.00 81 1005.4
20260506144842 63 226 0.0 0.0 0.00 0.00 0.00 80 1005.4
20260506144340 63 116 0.0 0.0 0.00 0.00 0.00 80 1005.4
20260506143839 63 267 0.0 0.0 0.00 0.00 0.00 80 1005.4
20260506143341 63 263 0.0 0.0 0.00 0.00 0.00 80 1005.4
20260506142840 63 131 0.0 0.0 0.00 0.00 0.00 80 1005.1
20260506142340 63 276 0.0 0.0 0.00 0.00 0.00 80 1005.1
20260506141839 63 261 0.0 0.0 0.00 0.00 0.00 79 1005.1
20260506141339 63 36 0.0 0.0 0.00 0.00 0.00 80 1005.1
20260506140840 63 252 0.0 0.0 0.00 0.00 0.00 80 1005.1
20260506140348 63 274 0.0 0.0 0.00 0.00 0.00 79 1005.1
20260506135839 63 345 0.0 0.0 0.00 0.00 0.00 79 1005.1
20260506135344 63 149 0.0 0.0 0.00 0.00 0.00 80 1005.1
20260506134840 63 227 0.0 0.0 0.00 0.00 0.00 80 1005.1
20260506134341 62 13 0.0 0.0 0.00 0.00 0.00 82 1005.1
20260506133840 62 139 0.0 0.0 0.00 0.00 0.00 82 1005.4
20260506133340 61 254 0.0 0.0 0.00 0.00 0.00 82 1005.1
20260506132839 61 251 0.0 0.0 0.00 0.00 0.00 83 1005.4
20260506132341 61 341 0.0 0.0 0.00 0.00 0.00 83 1005.4
20260506131840 61 29 0.0 0.0 0.00 0.00 0.00 83 1005.4
20260506131340 60 244 0.0 0.0 0.00 0.00 0.00 84 1005.4
20260506130842 60 193 0.0 0.0 0.00 0.00 0.00 84 1005.8
20260506130342 60 232 0.0 0.0 0.00 0.00 0.00 84 1005.8
20260506125839 60 7 0.0 0.0 0.00 0.00 0.00 84 1005.8
20260506125340 60 254 0.0 0.0 0.00 0.00 0.00 84 1005.8
20260506124841 60 117 0.0 0.0 0.00 0.00 0.00 85 1006.1
20260506124340 60 293 0.0 0.0 0.00 0.00 0.00 85 1006.1
20260506123840 60 345 0.0 0.0 0.00 0.00 0.00 85 1006.1
20260506123340 60 290 0.0 0.0 0.00 0.00 0.00 85 1005.8
20260506122840 59 198 0.0 0.0 0.00 0.00 0.00 85 1005.8
20260506122339 59 198 0.0 0.0 0.00 0.00 0.00 85 1005.8
20260506121840 59 284 0.0 0.0 0.00 0.00 0.00 86 1005.8
20260506121340 59 284 0.0 0.0 0.00 0.00 0.00 86 1005.4
20260506120840 59 281 0.0 0.0 0.00 0.00 0.00 86 1005.4
20260506120341 59 163 0.0 0.0 0.00 0.00 0.00 86 1005.4
20260506115339 58 163 0.0 0.0 0.00 0.00 0.00 87 1005.8
20260506114839 57 163 0.0 0.0 0.00 0.00 0.00 90 1005.8
20260506114340 57 330 0.0 0.0 0.00 0.00 0.00 90 1005.8
20260506113839 57 288 0.0 0.0 0.00 0.00 0.00 90 1005.8
20260506112340 57 217 0.0 0.0 0.00 0.00 0.00 90 1005.8
20260506111839 54 289 0.0 0.0 0.00 0.00 0.00 90 1005.8
20260506110339 54 289 0.0 0.0 0.00 0.00 0.00 90 1005.8
20260506102339 54 289 0.0 0.0 0.00 0.00 0.00 90 1005.8
20260506101840 54 282 0.0 0.0 0.00 0.00 0.00 90 1005.8
20260506095340 56 281 0.0 0.0 0.00 0.00 0.00 85 1005.8
20260506080840 56 285 0.0 0.0 0.00 0.00 0.00 85 1005.8
20260506080339 56 285 0.0 0.0 0.00 0.00 0.00 84 1006.1